Vertical_Velocity
0 -3 -8 -5 3 9 2 -18 -13 4 17 -1 -12 -14 -10 -5 -4 -6 -10 -3 1 1 -3 -6 -7 -6 -4 -4 -4 -4 -2 -4 -5 -6 -5 -4 -4 -3 -3 -3 -2 -2 -2 -1 0 1 2 2 3 4 4 4 3 1 -1 0 0 -0 -1 -2 -3 -4 -3 -5 -6 -7 -7 -6 -6 -5 -1 3 2 -2 -6 -2 3 6 9 10 10 9 8 8 7 5
-6 -7 -13 -14 -1 12 12 -15 -19 -9 7 5 -1 -8 -10 -4 -5 -9 -14 -9 -6 -4 -3 -4 -5 -5 -3 -4 -5 -5 -5 -6 -6 -6 -5 -3 -2 -1 -1 -0 0 1 2 4 5 5 4 4 3 3 2 1 -1 -2 -3 -2 -2 -1 -1 -0 -0 -0 -1 -3 -4 -3 -1 -2 -3 -3 -1 1 1 -0 -1 1 3 5 7 10 10 11 11 8 5 2
0 2 -9 -21 -13 1 10 -2 -8 -9 -5 1 1 -3 -5 -3 -5 -9 -11 -10 -9 -9 -9 -6 -3 -3 -4 -7 -9 -8 -6 -5 -5 -3 -2 -0 1 1 2 3 4 5 5 5 5 4 3 2 1 0 -0 -1 -2 -3 -3 -3 -2 -1 0 1 2 1 -0 -1 0 2 3 1 -1 -1 -0 0 0 1 2 5 5 6 8 9 9 9 7 3 -0 -3
-2 9 3 -14 -17 -13 -10 -5 -0 -0 -5 -2 -2 -3 -5 -5 -7 -10 -10 -7 -7 -9 -12 -9 -5 -2 -5 -9 -10 -8 -5 -3 -2 -0 1 2 3 3 4 4 4 4 3 2 1 0 0 -1 -2 -2 -1 -1 -2 -2 -2 -2 -1 0 1 2 2 1 0 1 2 3 4 2 1 0 1 1 0 0 1 3 4 5 6 6 5 3 0 -2 -4 -5
-8 3 5 -1 -5 -10 -20 -14 -6 -2 -4 -5 -5 -5 -4 -5 -7 -8 -8 -8 -7 -8 -9 -9 -6 -4 -4 -6 -6 -5 -2 0 2 2 2 2 2 1 1 1 1 1 0 -1 -1 -1 -2 -2 -2 -2 -1 -1 -1 -1 -1 -0 1 1 1 1 0 0 1 2 2 3 3 3 4 4 4 4 3 3 2 2 2 2 3 3 2 0 -2 -3 -4 -4
-13 -9 -5 1 2 -2 -11 -10 -7 -5 -3 -8 -10 -10 -5 -4 -4 -5 -6 -9 -10 -10 -10 -10 -7 -4 -1 -1 -1 -0 1 2 1 0 -1 -2 -3 -3 -2 -2 -1 -1 -1 -1 -1 -1 -1 -0 -0 -0 -0 -0 -0 0 1 3 3 3 3 2 1 2 3 4 5 6 6 5 5 4 4 4 4 4 3 2 2 1 2 2 2 2 1 0 -1 -1
-13 -19 -21 -10 -5 -5 -8 -8 -6 -2 5 -1 -8 -13 -12 -9 -6 -4 -5 -7 -8 -9 -10 -10 -7 -2 2 2 1 1 0 -1 -3 -5 -5 -5 -5 -4 -3 -2 -1 -1 -1 -0 0 0 0 1 1 1 2 2 2 3 4 5 6 6 6 5 4 4 4 6 7 8 7 5 3 1 -0 -0 -0 0 0 0 0 0 0 1 2 3 3 1 -0 -1
-5 -14 -24 -16 -9 -5 -7 -12 -11 -3 10 9 2 -6 -12 -14 -12 -8 -5 -4 -3 -2 -2 -5 -6 -5 -2 0 0 -1 -3 -5 -6 -7 -7 -5 -4 -2 -1 -1 -1 -1 0 1 1 0 0 0 1 2 3 4 5 5 5 5 6 7 7 5 3 2 2 3 3 3 2 1 0 -1 -2 -3 -4 -5 -6 -4 -2 -1 -0 -0 0 0 -0 -2 -3 -4
-4 -5 -11 -12 -5 5 11 -3 -11 -9 6 11 9 3 -1 -9 -14 -15 -10 -5 -0 3 5 0 -6 -11 -11 -5 -3 -3 -5 -5 -4 -4 -3 -2 -1 0 1 0 -0 -0 -0 -0 -0 -0 0 1 2 3 4 4 3 3 2 2 2 2 1 -1 -2 -2 -2 -2 -3 -4 -5 -4 -3 -2 -1 -2 -4 -7 -9 -6 -4 -2 -2 -2 -2 -3 -4 -5 -5 -6
-10 -7 -1 -4 -3 4 17 13 1 -9 -4 3 4 3 5 4 -2 -9 -13 -11 -7 -2 2 1 -3 -9 -15 -13 -8 -4 -4 -5 -4 -1 2 2 2 2 2 1 0 -1 -3 -2 -1 -0 -0 1 1 2 1 0 -0 -1 -1 -1 -2 -2 -4 -5 -4 -4 -3 -4 -5 -5 -6 -5 -4 -2 -0 0 -1 -2 -4 -3 -3 -2 -2 -3 -3 -4 -5 -5 -6 -7
-7 -6 0 3 2 1 5 8 3 -3 -6 -4 -5 -6 -4 5 9 8 -1 -11 -15 -13 -9 -5 -2 -1 -6 -13 -13 -10 -4 -5 -5 -5 -2 0 1 1 0 -1 -3 -4 -4 -4 -3 -3 -2 -1 -1 -1 -2 -2 -2 -1 -2 -2 -3 -3 -4 -4 -3 -2 -1 -1 -2 -2 -2 -2 -1 -0 1 2 2 2 1 -0 -1 -1 -2 -3 -4 -5 -5 -6 -7 -8
-3 1 6 9 8 5 0 -4 -8 -10 -8 -3 -3 -7 -12 -6 4 11 9 -4 -12 -15 -13 -12 -7 -1 3 -3 -9 -12 -8 -6 -5 -6 -7 -4 -2 -1 -3 -7 -9 -8 -6 -6 -6 -5 -3 -2 -2 -2 -2 -2 -3 -2 -2 -2 -2 -2 -1 -0 0 0 1 0 0 -0 -1 -1 -1 -1 0 0 0 -0 -1 -2 -2 -3 -3 -5 -5 -6 -6 -7 -7 -7
0 5 11 11 6 0 -4 -7 -9 -10 -8 -2 2 1 -5 -8 -4 1 3 -3 -7 -7 -5 -8 -9 -7 -1 2 -0 -5 -7 -7 -7 -6 -5 -5 -3 -2 -2 -7 -10 -11 -7 -7 -8 -7 -4 -2 -2 -3 -2 -2 -2 -2 -1 -1 -1 -0 1 1 1 0 0 -1 -1 -2 -3 -3 -3 -3 -4 -3 -4 -4 -4 -4 -4 -4 -4 -5 -5 -5 -5 -5 -4 -4
9 10 9 3 -2 -5 -7 -5 -3 -2 -5 -2 2 3 -0 -5 -5 -3 -2 -6 -8 -6 -1 -2 -5 -7 -5 -1 1 1 0 -3 -6 -9 -8 -6 -2 1 2 -5 -8 -9 -4 -5 -7 -9 -4 -0 -2 -5 -6 -4 -3 -2 -1 -1 -2 -1 0 -0 -0 -1 -1 -2 -2 -2 -1 -1 -1 -1 -1 -1 -1 -1 -1 -0 0 0 0 0 0 0 1 1 1 1
11 8 0 -6 -8 -6 -3 0 1 -1 -5 -3 -1 -1 -4 -6 -5 -2 1 -3 -7 -8 -3 -4 -7 -8 -4 1 4 4 4 2 -2 -7 -10 -9 -3 4 9 1 -6 -9 -5 -4 -7 -10 -5 1 -1 -5 -8 -5 -4 -2 -1 -1 -1 -1 -0 -1 -1 -1 -0 0 1 1 3 3 4 4 4 4 4 4 5 4 4 4 4 4 4 4 4 3 3 2
2 -0 -1 -4 -6 -7 -5 1 3 1 -4 -5 -3 -1 -0 -3 -3 -1 3 -0 -4 -5 -4 -7 -12 -16 -17 -6 4 10 10 6 1 -4 -8 -13 -9 0 13 7 -3 -11 -10 -5 -6 -8 -7 -3 -2 -2 -4 -4 -3 -2 -1 -1 -1 -0 -0 -0 0 1 2 2 2 2 3 4 4 4 4 3 3 2 2 1 1 1 1 0 0 -0 -0 -1 -1 -1
-5 -3 -0 -1 -4 -7 -8 -4 -0 -0 -2 -4 -4 -1 4 3 3 4 6 2 0 -0 1 1 -5 -14 -25 -23 -12 3 15 11 5 -2 -6 -13 -14 -6 10 11 2 -9 -13 -9 -6 -6 -5 -5 -5 -4 -3 -4 -5 -5 -3 -2 -2 -1 -1 -0 1 1 2 2 1 1 1 1 0 -0 -0 -0 -1 -2 -4 -4 -4 -3 -2 -2 -2 -3 -3 -4 -3 -3
-7 -3 1 -0 -3 -5 -6 -5 -5 -5 -4 -4 -3 -2 1 4 5 6 7 8 7 4 2 7 6 0 -10 -20 -22 -13 12 15 8 -2 -8 -16 -18 -12 3 7 2 -6 -11 -11 -9 -7 -4 -4 -3 -2 -3 -4 -4 -3 -3 -2 -2 -1 -1 -1 -0 0 1 1 1 1 1 0 -0 -1 -1 -1 -0 -0 -1 -1 -2 -1 -0 1 1 1 -0 -1 -1 -0
-5 -3 3 1 -3 -6 -6 -4 -4 -3 -2 -2 -1 -0 -0 1 5 6 4 6 8 7 2 2 2 1 0 -11 -19 -15 6 13 10 1 -8 -20 -23 -19 -4 0 -3 -9 -11 -11 -9 -6 -5 -6 -6 -5 -4 -3 -2 -2 -2 -2 -2 -2 -1 -0 0 1 2 1 2 2 3 3 3 3 3 3 3 3 4 4 4 4 4 5 5 5 4 3 2 2
-4 -4 -0 3 2 -3 -8 -8 -5 -1 2 3 5 7 5 2 2 2 0 3 5 6 3 1 -1 -3 -0 -9 -15 -14 1 9 9 3 -5 -14 -19 -18 -5 0 -3 -9 -13 -12 -9 -5 -4 -6 -7 -7 -5 -3 -2 -1 -1 -2 -2 -1 0 0 1 1 1 1 2 3 3 4 5 5 5 5 4 4 4 5 5 5 4 4 4 3 2 1 1 0
-2 -6 -6 3 7 5 -5 -10 -8 -1 5 9 12 12 10 5 -1 -4 -4 -1 0 1 4 3 -1 -3 0 -5 -13 -14 -1 8 7 1 -7 -14 -18 -17 -5 1 0 -6 -13 -15 -11 -6 -3 -5 -5 -5 -2 -1 -1 -1 -1 -1 -1 -1 -1 -1 -0 0 0 1 1 2 2 3 3 4 4 4 3 3 3 3 2 2 1 1 1 0 -0 -1 -1 -2
4 -2 -7 0 6 7 1 -5 -4 2 10 16 17 13 7 3 -3 -8 -9 -2 2 2 1 -1 -3 -3 -0 -4 -10 -10 0 10 12 8 2 -10 -22 -24 -9 1 2 -3 -11 -14 -11 -6 -3 -3 -3 -4 -3 -2 -0 -0 -0 -1 -2 -2 -2 -2 -1 -1 -0 0 0 1 1 1 1 1 1 1 0 0 0 0 -0 -0 -0 -0 -0 -0 -2 -2 -2 -2
6 2 -2 -0 2 4 4 4 5 7 11 13 12 9 5 6 5 3 -0 2 4 4 2 -2 -5 -5 -3 -5 -7 -7 -0 7 11 13 14 1 -15 -23 -13 -2 1 -2 -10 -10 -8 -5 -4 -2 -2 -3 -3 -4 -3 -2 -2 -2 -3 -3 -2 -2 -1 -1 -0 -0 -1 -1 -2 -2 -3 -3 -3 -3 -3 -2 -2 -3 -3 -3 -2 -2 -2 -2 -2 -2 -2 -1
5 3 1 2 3 5 7 9 8 6 5 5 4 3 4 7 9 9 7 6 5 2 -1 -4 -7 -9 -9 -7 -6 -5 -2 5 10 11 11 1 -10 -17 -11 -3 -1 -5 -11 -8 -4 -2 -5 -5 -5 -3 -2 -3 -2 -2 -3 -3 -3 -2 -2 -1 -0 -0 -1 -1 -2 -2 -3 -3 -3 -3 -3 -2 -2 -1 -1 -1 -1 -2 -2 -2 -2 -2 -2 -1 -1 0
5 5 4 3 4 5 7 6 4 3 3 3 3 3 3 3 3 2 0 1 1 1 -1 -4 -6 -9 -11 -9 -8 -7 -5 3 9 10 8 -1 -10 -16 -12 -1 -0 -6 -16 -13 -6 -1 -3 -6 -6 -5 -2 -4 -3 -2 -2 -3 -3 -2 -2 -1 -0 -0 -0 -0 -0 -0 0 1 1 2 2 3 3 3 3 2 2 1 1 1 0 0 0 1 2 2
5 5 5 3 2 2 3 3 4 5 7 8 7 5 3 0 -2 -4 -6 -4 -0 2 3 0 -4 -9 -10 -7 -9 -10 -8 -0 5 8 9 3 -6 -15 -17 -5 -0 -3 -12 -12 -8 -3 -2 -7 -8 -7 -5 -6 -6 -5 -3 -2 -2 -1 -0 0 1 1 2 2 3 3 4 4 4 4 4 3 3 2 1 1 1 1 1 2 2 2 2 3 3 3
4 3 2 1 1 1 2 3 4 5 6 6 6 6 6 4 1 -2 -4 -3 1 5 7 3 -3 -10 -12 -8 -7 -8 -6 -3 1 5 9 8 0 -9 -15 -6 -1 -0 -6 -9 -6 -2 1 -5 -9 -10 -8 -7 -5 -4 -2 0 2 3 3 2 2 2 3 2 2 2 1 1 0 0 -1 -2 -3 -3 -4 -3 -3 -2 -2 -1 -1 -1 -0 0 0 -0
3 2 1 1 1 2 3 3 3 3 2 2 2 4 7 7 5 2 -3 -1 2 6 8 7 2 -4 -9 -10 -10 -8 -5 -3 -0 4 10 11 5 -5 -12 -5 0 2 -3 -9 -10 -6 1 -0 -3 -5 -6 -4 -2 -0 0 1 1 1 0 0 0 0 -0 -1 -2 -2 -3 -3 -4 -4 -4 -5 -5 -5 -5 -4 -4 -3 -3 -2 -1 -1 -0 0 -1 -3
0 0 1 2 3 3 2 2 1 0 -0 -0 0 3 5 7 7 4 -2 -0 3 5 5 4 5 3 -2 -10 -14 -14 -10 -5 1 7 12 10 2 -8 -11 -4 -0 1 2 -8 -15 -15 -5 -0 3 3 0 -0 0 0 -1 -2 -3 -4 -5 -4 -2 -1 -2 -2 -3 -3 -4 -4 -4 -3 -4 -3 -3 -2 -2 -1 -0 -0 0 1 3 5 5 4 2 -1
-4 -3 -2 -1 1 1 1 -1 -2 -2 -2 -0 1 2 4 4 4 3 0 2 5 6 4 3 3 4 3 -4 -11 -17 -20 -13 -1 9 14 9 -2 -11 -11 -6 -3 1 7 1 -10 -20 -20 -11 -0 6 5 1 -2 -4 -5 -5 -6 -6 -6 -5 -4 -3 -2 -1 -1 -2 -3 -2 -2 -1 -1 -1 -1 -1 -1 -0 0 0 1 2 5 8 9 6 5 3
-6 -5 -5 -4 -3 -2 -2 -3 -3 -3 -2 -1 0 1 1 1 2 2 2 4 6 7 6 4 3 4 7 8 1 -10 -22 -22 -10 5 15 12 3 -6 -7 -6 -6 -3 8 15 9 -5 -22 -24 -15 -2 6 2 -3 -7 -7 -5 -4 -4 -4 -5 -5 -5 -2 -0 -0 -1 -2 -2 -1 -1 -2 -2 -2 -3 -3 -2 -2 -2 -2 0 3 5 5 3 1 -0
-4 -4 -4 -4 -4 -4 -4 -4 -4 -3 -3 -2 -1 -1 -0 0 2 3 4 5 7 7 6 4 3 3 5 11 9 0 -14 -20 -12 2 16 15 6 -3 -3 -1 -5 -6 -1 13 19 15 -3 -19 -22 -15 -3 -1 -3 -6 -6 -3 -2 -1 -2 -3 -4 -5 -2 0 0 -1 -3 -3 -2 -2 -3 -3 -3 -3 -2 -2 -2 -2 -2 -1 1 3 3 0 -3 -6
-3 -3 -4 -4 -4 -4 -4 -3 -2 -3 -3 -2 -2 -2 -2 -1 1 3 4 6 7 9 9 6 4 3 2 5 3 -1 -8 -11 -5 5 17 17 9 -1 -5 -1 -2 -5 -7 1 10 14 11 -4 -13 -15 -10 -6 -4 -3 -4 -2 -1 0 1 -1 -3 -5 -3 0 0 -1 -2 -1 -2 -2 -2 -1 -0 -0 -0 0 0 0 -0 1 2 4 5 2 -1 -5
-4 -4 -5 -5 -5 -4 -4 -3 -2 -2 -2 -2 -2 -2 -3 -2 -0 1 3 5 7 9 10 10 9 7 5 3 -2 -8 -12 -10 -1 9 17 18 12 3 -3 -1 -1 -2 -4 -4 -1 3 6 2 -3 -7 -12 -11 -8 -4 -1 -1 -1 -0 1 1 -2 -4 -4 -2 -1 -1 -1 -1 -1 -1 -2 -0 0 0 1 1 2 1 1 1 3 5 6 5 4 1
-5 -5 -5 -4 -5 -5 -5 -5 -4 -3 -3 -3 -3 -3 -2 -2 -1 0 2 3 5 6 8 10 12 14 14 10 2 -7 -17 -13 -4 7 14 18 15 8 1 0 1 3 3 -1 -1 -2 -3 -4 -2 -1 -6 -13 -14 -10 -2 2 2 0 -0 1 0 -1 -3 -1 -1 -1 -2 -2 -2 -2 -2 -1 -1 -1 -1 -0 0 1 1 1 2 3 5 6 6 6
-5 -5 -5 -4 -4 -5 -6 -5 -5 -4 -4 -4 -4 -3 -2 -2 -1 -0 1 2 3 4 5 6 10 12 15 16 11 3 -10 -10 -6 1 8 14 15 13 7 2 3 6 8 5 3 2 -0 -5 -5 -3 -1 -7 -12 -15 -10 -1 2 2 -1 -1 -1 -1 -1 1 2 1 -1 -3 -4 -4 -3 -2 -3 -3 -3 -2 -1 0 0 1 1 2 3 4 6 7
-4 -5 -5 -4 -4 -4 -5 -5 -5 -4 -4 -4 -5 -4 -3 -2 -1 -1 -0 -0 0 1 1 2 4 7 11 13 13 9 2 -3 -4 -2 3 8 12 13 11 4 3 6 11 9 6 5 4 -0 -5 -6 -3 -2 -6 -11 -14 -9 -4 -2 -2 -2 -2 -3 -4 -0 2 2 0 -2 -3 -3 -3 -2 -3 -3 -4 -3 -1 -0 -0 0 1 2 3 4 5 6
-4 -4 -5 -4 -4 -3 -3 -4 -4 -3 -2 -3 -4 -4 -3 -2 -1 -1 -1 -1 -1 -1 -0 -1 -0 1 5 7 8 8 5 2 0 -0 1 5 9 11 11 5 2 3 8 10 10 9 7 4 -0 -5 -7 -6 -5 -5 -5 -5 -5 -5 -4 -2 -1 -2 -3 -1 1 2 1 -0 -1 -1 -1 -0 -1 -2 -3 -2 -2 -1 -2 -2 -0 1 3 4 5 5
-3 -4 -5 -4 -3 -2 -1 -2 -2 -2 -1 -1 -1 -2 -2 -2 -1 -0 0 0 0 -0 -0 -0 -0 -0 0 2 3 4 4 3 2 2 2 4 6 9 10 7 3 1 3 7 9 10 11 9 6 2 -1 -6 -9 -10 -7 -3 -1 -2 -3 -5 -6 -5 -0 2 3 3 3 1 -0 -1 -1 0 0 -0 -2 -2 -1 -2 -4 -5 -3 -1 1 1 1 1
-3 -4 -4 -3 -1 0 1 1 0 -0 -1 -1 -1 -1 -1 -2 -3 -3 -1 -0 0 1 1 1 1 1 1 1 2 2 2 1 1 1 2 3 5 7 9 8 5 2 1 3 5 8 10 9 7 5 6 2 -3 -9 -12 -8 -3 0 0 -6 -12 -14 -9 -2 1 2 2 2 1 -1 -2 -1 -0 0 0 1 1 1 -0 -2 -2 -1 1 2 1 -2
-2 -3 -3 -3 -2 0 2 2 2 2 1 -1 -2 -3 -3 -3 -5 -6 -7 -5 -4 -2 -1 -1 -2 -2 -1 1 2 3 2 1 1 1 3 4 5 6 7 7 6 5 4 3 4 6 9 8 5 3 4 4 1 -3 -7 -6 -2 3 5 -0 -6 -10 -10 -6 -3 -1 -1 -0 0 1 1 -0 -0 0 1 2 3 5 5 4 2 -0 -0 2 3 1
-1 -1 -2 -2 -1 -0 -0 0 1 1 2 1 -1 -2 -2 -1 -3 -5 -7 -9 -8 -6 -4 -3 -5 -8 -10 -7 -3 1 4 4 4 3 4 4 5 5 5 5 6 6 6 5 4 4 7 7 6 4 4 5 3 -2 -8 -7 -2 4 7 4 -2 -8 -13 -9 -2 3 3 1 1 3 4 4 3 3 2 2 2 3 5 6 5 4 3 3 4 4
-1 -1 -1 -1 -0 0 0 -0 -0 -0 -0 -0 -0 0 1 1 0 -1 -3 -5 -6 -5 -4 -2 -2 -4 -8 -11 -10 -5 1 5 6 6 5 4 4 4 5 5 6 7 8 6 4 2 2 4 5 5 5 6 5 2 -4 -7 -6 -2 3 5 5 -1 -12 -14 -9 -2 4 3 3 4 5 6 6 5 4 2 1 1 2 3 5 5 6 7 7 6
-1 -1 -1 -1 -1 -1 -1 -1 -1 -1 -0 -1 -1 -1 -0 0 1 0 -0 -2 -3 -3 -3 -2 -2 -3 -4 -7 -9 -9 -6 -1 3 6 7 7 7 7 7 6 6 7 8 9 6 2 -1 -1 1 4 7 7 6 3 -0 -3 -4 -4 -2 3 8 9 4 -3 -5 -6 -5 -2 0 3 5 6 6 5 3 2 1 2 2 1 1 2 4 6 7 8
-0 -1 -1 -1 -1 -2 -3 -3 -2 -0 0 0 -0 -1 -1 -1 -0 1 1 -1 -2 -2 -0 0 -1 -3 -5 -7 -8 -8 -10 -8 -4 0 5 7 10 11 10 8 6 5 5 7 8 8 4 -0 -2 -1 2 4 4 4 3 1 -1 -3 -3 0 4 7 8 7 5 3 -0 -2 -2 1 5 6 6 3 0 -1 -0 1 3 3 3 2 1 3 5 7
-1 -2 -2 -2 -1 -1 -2 -2 -2 -1 -0 0 0 -0 -1 -2 -1 0 2 1 0 -1 0 2 3 2 -2 -5 -7 -8 -10 -11 -9 -6 -1 2 5 7 8 8 7 5 4 4 6 7 9 6 3 -1 -4 -3 -1 2 5 5 3 -0 -3 -1 -0 -0 -1 1 4 6 6 4 3 4 5 5 4 3 1 -0 -0 1 3 5 5 4 2 2 4 5
-2 -2 -2 -2 -2 -2 -2 -2 -2 -2 -2 -1 -0 0 -0 -2 -2 -1 -0 1 1 1 0 0 2 3 3 0 -1 -3 -5 -8 -10 -9 -6 -3 -0 2 4 5 7 7 7 5 5 5 6 6 5 2 -1 -4 -5 -5 -0 4 5 5 2 0 -1 -2 -3 -2 0 4 6 8 9 8 6 3 1 0 1 1 0 0 1 4 5 5 3 3 4 5
-1 -1 -2 -2 -2 -3 -4 -3 -3 -3 -4 -3 -2 -1 0 1 1 0 -1 -1 -0 0 -0 -1 -1 0 1 1 2 3 3 0 -3 -5 -6 -5 -4 -3 -0 2 4 5 7 8 8 8 7 7 6 4 1 -1 -3 -5 -6 -2 2 4 5 3 2 0 -0 -0 0 2 5 9 10 10 8 5 4 3 2 0 -1 -1 -0 2 3 4 4 4 5 5
0 -0 -1 -2 -3 -3 -4 -4 -3 -3 -4 -4 -4 -3 -2 1 3 4 2 1 0 0 0 -0 -0 -1 -1 -1 -0 1 3 2 1 -0 -1 -2 -4 -5 -5 -3 -2 -1 1 4 6 8 8 9 8 6 2 -0 -2 -3 -5 -4 -1 2 4 5 5 4 2 0 0 1 4 6 6 6 5 6 7 7 6 3 0 -1 -1 1 3 4 6 7 8 7
1 1 0 -0 -1 -2 -2 -2 -3 -3 -4 -4 -4 -5 -5 -3 -0 2 4 3 2 2 2 2 2 1 -0 -1 -1 -1 0 -0 -1 -1 -0 -0 -1 -4 -5 -6 -8 -10 -10 -9 -7 -5 -4 -1 3 6 6 4 3 1 -1 -2 -2 -1 1 4 5 5 4 1 0 1 3 3 3 2 1 2 3 4 4 4 2 0 -1 0 2 4 8 10 10 10
-1 -0 -0 -0 -0 -0 -1 -1 -1 -2 -2 -2 -3 -4 -5 -5 -4 -2 -0 0 0 1 1 3 4 4 3 1 0 0 1 1 -0 -1 -1 -0 -0 -2 -3 -5 -7 -10 -14 -16 -18 -19 -20 -20 -16 -9 3 10 12 11 9 5 1 -2 -3 0 3 3 3 2 1 1 2 2 2 1 -0 -1 -1 -0 2 3 2 -0 -3 -2 -1 3 8 10 11 11
Height
1395 1394 1393 1392 1390 1388 1385 1386 1386 1384 1380 1379 1379 1378 1377 1375 1374 1372 1371 1370 1368 1366 1364 1362 1360 1359 1357 1355 1354 1353 1352 1351 1350 1348 1346 1345 1343 1341 1339 1337 1335 1334 1332 1330 1329 1327 1326 1325 1323 1321 1320 1319 1318 1317 1316 1315 1314 1313 1312 1311 1310 1310 1309 1308 1308 1307 1307 1307 1306 1306 1305 1305 1304 1304 1304 1303 1303 1302 1302 1302 1302 1302 1302 1302 1302 1301
1394 1392 1391 1391 1390 1387 1383 1382 1383 1382 1380 1377 1375 1375 1374 1372 1370 1369 1367 1366 1365 1364 1362 1360 1358 1356 1354 1352 1351 1350 1349 1348 1346 1344 1343 1341 1339 1337 1335 1334 1332 1330 1329 1327 1325 1324 1323 1321 1320 1318 1317 1315 1314 1313 1312 1311 1310 1309 1308 1308 1307 1306 1305 1305 1305 1304 1303 1303 1303 1302 1302 1301 1301 1300 1300 1299 1299 1298 1298 1298 1298 1298 1298 1298 1298 1298
1393 1390 1388 1388 1388 1386 1382 1380 1379 1379 1378 1375 1373 1372 1371 1369 1367 1365 1364 1363 1361 1360 1359 1357 1355 1353 1351 1350 1348 1347 1345 1344 1342 1340 1339 1337 1335 1334 1332 1330 1329 1327 1325 1324 1322 1321 1319 1318 1316 1315 1313 1312 1311 1310 1309 1308 1307 1306 1305 1304 1303 1303 1302 1301 1300 1300 1299 1299 1299 1298 1298 1297 1297 1297 1296 1296 1295 1295 1294 1294 1294 1294 1294 1294 1294 1295
1392 1389 1386 1385 1385 1383 1381 1379 1376 1375 1374 1373 1371 1370 1368 1366 1364 1362 1361 1360 1358 1356 1355 1353 1352 1350 1348 1346 1344 1343 1341 1340 1338 1337 1335 1334 1332 1330 1329 1327 1325 1324 1322 1320 1319 1317 1316 1315 1313 1312 1310 1309 1308 1307 1306 1305 1304 1303 1302 1301 1300 1299 1298 1297 1297 1296 1295 1295 1295 1294 1294 1294 1293 1293 1293 1292 1292 1291 1291 1290 1290 1290 1290 1290 1290 1291
1391 1389 1386 1384 1382 1380 1378 1377 1375 1373 1371 1370 1369 1367 1365 1363 1361 1360 1358 1356 1355 1353 1351 1350 1348 1346 1344 1342 1340 1339 1338 1336 1335 1333 1332 1330 1329 1327 1325 1323 1322 1320 1319 1317 1315 1314 1312 1311 1310 1308 1307 1306 1305 1304 1302 1301 1301 1300 1299 1298 1297 1295 1295 1294 1293 1293 1292 1292 1291 1290 1290 1290 1289 1289 1289 1288 1288 1287 1287 1287 1287 1287 1287 1287 1287 1287
1390 1388 1386 1384 1380 1378 1376 1374 1373 1371 1369 1367 1366 1364 1363 1361 1359 1357 1355 1353 1351 1350 1348 1346 1344 1343 1341 1339 1337 1335 1334 1333 1331 1330 1328 1326 1325 1323 1321 1320 1318 1316 1315 1313 1312 1310 1309 1308 1306 1305 1304 1303 1301 1300 1299 1298 1297 1296 1295 1294 1293 1292 1291 1290 1290 1289 1288 1288 1287 1286 1286 1285 1285 1285 1284 1284 1284 1283 1283 1283 1283 1283 1283 1283 1283 1283
1387 1386 1385 1382 1379 1376 1374 1372 1370 1369 1367 1365 1363 1361 1360 1358 1356 1354 1352 1350 1348 1346 1344 1342 1341 1339 1338 1336 1335 1333 1331 1329 1327 1325 1324 1322 1320 1319 1317 1316 1314 1313 1311 1310 1309 1307 1306 1305 1303 1302 1300 1299 1298 1297 1296 1295 1294 1293 1291 1290 1289 1288 1287 1286 1286 1285 1284 1284 1283 1282 1282 1281 1281 1280 1280 1280 1279 1279 1279 1279 1279 1279 1279 1279 1279 1279
1384 1382 1381 1380 1377 1374 1371 1370 1369 1367 1366 1364 1362 1359 1356 1354 1353 1351 1349 1347 1345 1344 1342 1339 1337 1336 1335 1333 1332 1330 1328 1325 1323 1321 1320 1318 1316 1315 1314 1312 1311 1309 1308 1307 1305 1304 1303 1301 1300 1299 1297 1296 1295 1294 1292 1291 1290 1289 1287 1286 1285 1284 1283 1282 1282 1281 1280 1279 1279 1278 1278 1277 1277 1277 1276 1276 1275 1275 1275 1275 1275 1274 1274 1275 1275 1275
1384 1380 1378 1376 1375 1372 1369 1367 1366 1366 1365 1364 1361 1358 1355 1352 1350 1348 1346 1345 1343 1342 1340 1338 1335 1333 1331 1330 1329 1327 1325 1322 1320 1318 1316 1314 1313 1311 1310 1309 1308 1306 1305 1303 1302 1300 1299 1298 1296 1295 1294 1293 1292 1290 1289 1287 1286 1285 1284 1282 1281 1280 1279 1279 1278 1277 1276 1275 1275 1274 1274 1273 1273 1273 1273 1272 1272 1271 1271 1271 1271 1270 1271 1271 1271 1271
1382 1379 1376 1374 1372 1371 1369 1366 1365 1364 1364 1362 1360 1357 1355 1352 1348 1345 1343 1341 1340 1340 1338 1336 1333 1330 1327 1326 1325 1323 1321 1319 1316 1315 1313 1311 1310 1309 1307 1306 1305 1303 1301 1300 1298 1297 1296 1295 1293 1292 1290 1289 1288 1286 1285 1283 1282 1280 1279 1279 1277 1276 1275 1274 1274 1273 1272 1271 1271 1270 1270 1269 1269 1269 1269 1268 1268 1267 1267 1267 1267 1267 1267 1267 1267 1267
1379 1376 1374 1371 1370 1369 1368 1366 1364 1362 1361 1359 1357 1355 1354 1352 1349 1345 1342 1338 1337 1336 1335 1333 1331 1328 1325 1322 1321 1320 1318 1315 1313 1311 1310 1308 1307 1305 1304 1303 1301 1300 1298 1296 1295 1294 1292 1290 1289 1288 1286 1285 1283 1282 1280 1279 1278 1276 1275 1274 1273 1272 1271 1270 1269 1269 1268 1267 1266 1266 1265 1265 1264 1264 1264 1264 1263 1263 1263 1263 1263 1263 1263 1263 1263 1263
1376 1373 1371 1370 1369 1367 1366 1364 1362 1360 1359 1357 1355 1352 1350 1350 1349 1346 1342 1338 1335 1333 1331 1329 1327 1325 1324 1321 1318 1316 1314 1312 1310 1307 1305 1304 1303 1301 1300 1299 1297 1295 1294 1292 1290 1289 1287 1286 1285 1283 1282 1280 1279 1277 1276 1274 1273 1272 1271 1270 1269 1268 1267 1266 1265 1264 1264 1263 1262 1261 1261 1260 1260 1260 1259 1259 1259 1259 1259 1259 1259 1259 1259 1259 1259 1259
1374 1372 1371 1369 1367 1366 1364 1362 1360 1359 1357 1356 1354 1351 1349 1347 1345 1344 1341 1337 1334 1331 1329 1326 1323 1321 1320 1320 1317 1315 1312 1309 1307 1305 1302 1300 1300 1299 1297 1295 1293 1291 1289 1287 1285 1284 1283 1282 1280 1279 1277 1275 1274 1273 1271 1270 1269 1267 1266 1265 1264 1263 1263 1262 1261 1260 1259 1259 1258 1258 1257 1257 1256 1256 1256 1255 1255 1255 1255 1254 1254 1254 1255 1255 1255 1255
1372 1371 1369 1367 1365 1364 1363 1361 1360 1357 1355 1354 1352 1350 1347 1345 1343 1341 1339 1335 1332 1330 1328 1325 1321 1318 1317 1316 1315 1313 1310 1307 1305 1302 1300 1298 1297 1296 1295 1292 1290 1287 1286 1284 1281 1279 1279 1278 1276 1274 1272 1271 1270 1268 1267 1265 1264 1263 1262 1261 1260 1259 1259 1258 1257 1256 1256 1255 1254 1254 1253 1253 1252 1252 1252 1251 1251 1251 1251 1250 1250 1250 1250 1250 1250 1250
1372 1370 1368 1366 1365 1363 1362 1360 1358 1356 1353 1352 1350 1347 1345 1343 1340 1339 1337 1333 1330 1327 1325 1322 1319 1316 1314 1314 1313 1312 1309 1306 1303 1300 1297 1295 1294 1294 1293 1290 1287 1284 1282 1280 1277 1275 1274 1274 1272 1269 1268 1266 1265 1264 1263 1262 1260 1259 1259 1258 1257 1256 1255 1254 1253 1253 1252 1251 1250 1250 1249 1249 1249 1248 1247 1247 1247 1247 1246 1246 1246 1246 1246 1246 1246 1246
1370 1369 1367 1365 1363 1361 1360 1359 1357 1354 1351 1349 1347 1345 1343 1341 1339 1337 1335 1332 1328 1326 1323 1320 1316 1312 1310 1310 1311 1310 1309 1305 1302 1299 1296 1292 1291 1291 1291 1288 1284 1280 1278 1276 1274 1272 1270 1269 1268 1266 1264 1263 1262 1261 1259 1258 1257 1256 1255 1254 1253 1252 1251 1251 1250 1249 1248 1247 1246 1246 1245 1245 1244 1244 1243 1243 1243 1242 1242 1242 1242 1242 1241 1241 1241 1242
1370 1368 1366 1364 1361 1359 1358 1356 1355 1352 1350 1347 1345 1343 1342 1339 1337 1335 1333 1330 1327 1325 1322 1320 1316 1311 1307 1304 1305 1307 1307 1305 1300 1297 1294 1290 1287 1287 1288 1285 1281 1277 1274 1273 1271 1269 1267 1265 1264 1262 1261 1259 1259 1257 1256 1255 1254 1253 1252 1251 1250 1249 1248 1247 1246 1245 1244 1244 1243 1242 1241 1241 1240 1239 1239 1239 1239 1238 1238 1238 1238 1238 1237 1237 1237 1237
1368 1367 1365 1363 1360 1357 1355 1354 1352 1350 1348 1345 1343 1341 1339 1337 1335 1333 1331 1329 1327 1324 1321 1319 1316 1313 1308 1303 1301 1302 1304 1303 1299 1295 1291 1287 1284 1283 1284 1282 1279 1275 1271 1269 1267 1265 1264 1262 1260 1259 1258 1257 1255 1254 1253 1252 1251 1250 1248 1247 1246 1245 1244 1243 1242 1241 1240 1239 1239 1238 1237 1237 1236 1236 1235 1235 1234 1234 1234 1234 1234 1233 1233 1233 1233 1233
1366 1365 1363 1361 1358 1356 1354 1352 1350 1348 1346 1344 1341 1338 1336 1334 1333 1331 1330 1328 1326 1323 1320 1318 1315 1311 1308 1304 1300 1299 1300 1300 1297 1293 1288 1284 1281 1279 1279 1278 1275 1271 1268 1265 1264 1262 1260 1259 1257 1256 1255 1254 1252 1251 1250 1249 1247 1246 1245 1244 1242 1241 1240 1239 1238 1237 1236 1236 1235 1234 1234 1233 1232 1232 1231 1231 1230 1230 1230 1229 1229 1229 1229 1229 1229 1229
1364 1362 1361 1359 1357 1354 1351 1350 1348 1347 1345 1342 1339 1337 1334 1332 1330 1329 1327 1326 1324 1321 1319 1316 1313 1310 1307 1302 1299 1296 1297 1297 1294 1290 1285 1281 1278 1276 1276 1275 1272 1268 1265 1262 1261 1259 1257 1255 1253 1252 1250 1249 1249 1248 1246 1245 1244 1242 1241 1240 1239 1238 1237 1235 1234 1234 1233 1232 1231 1230 1230 1229 1229 1228 1227 1227 1226 1226 1226 1226 1225 1225 1225 1225 1224 1224
1362 1360 1358 1357 1356 1353 1350 1347 1346 1345 1343 1340 1338 1336 1333 1331 1329 1326 1325 1323 1321 1319 1316 1314 1311 1308 1305 1301 1297 1295 1294 1294 1291 1287 1283 1278 1275 1273 1273 1272 1269 1266 1262 1259 1258 1256 1254 1252 1250 1248 1247 1246 1245 1244 1243 1242 1240 1239 1238 1237 1235 1234 1233 1232 1231 1230 1229 1228 1227 1226 1226 1225 1224 1224 1223 1223 1222 1222 1222 1221 1221 1221 1220 1220 1220 1220
1360 1358 1356 1355 1354 1352 1349 1346 1344 1343 1341 1340 1338 1335 1332 1330 1327 1324 1322 1320 1319 1316 1314 1311 1308 1305 1303 1300 1296 1293 1293 1292 1290 1286 1281 1276 1272 1269 1270 1270 1267 1264 1259 1257 1255 1254 1252 1250 1247 1245 1244 1243 1242 1241 1239 1238 1237 1236 1234 1233 1232 1230 1229 1228 1227 1226 1225 1224 1223 1223 1222 1221 1220 1219 1219 1219 1218 1218 1218 1217 1217 1216 1216 1216 1216 1215
1359 1356 1355 1353 1352 1350 1347 1345 1343 1341 1340 1339 1336 1334 1331 1329 1326 1323 1320 1318 1316 1314 1311 1308 1305 1302 1300 1297 1294 1292 1290 1290 1288 1285 1281 1276 1270 1267 1267 1267 1265 1261 1257 1255 1253 1252 1249 1247 1245 1243 1241 1240 1239 1238 1236 1235 1234 1232 1231 1229 1228 1227 1225 1224 1223 1222 1221 1220 1219 1219 1218 1217 1216 1216 1215 1215 1214 1214 1213 1213 1212 1212 1212 1212 1211 1211
1357 1355 1353 1351 1350 1348 1347 1345 1342 1340 1338 1336 1334 1331 1330 1327 1325 1322 1320 1317 1315 1312 1309 1305 1303 1300 1297 1295 1293 1290 1289 1288 1286 1284 1280 1275 1270 1266 1265 1265 1263 1259 1255 1253 1252 1250 1247 1244 1242 1240 1239 1237 1235 1234 1233 1231 1230 1228 1227 1225 1224 1223 1222 1221 1219 1219 1217 1217 1216 1215 1214 1213 1213 1212 1211 1211 1210 1210 1209 1209 1208 1208 1207 1207 1207 1206
1356 1354 1352 1350 1349 1347 1345 1343 1340 1338 1336 1334 1331 1329 1327 1325 1323 1320 1318 1315 1313 1310 1307 1304 1301 1298 1295 1293 1290 1288 1287 1286 1285 1282 1279 1274 1269 1265 1264 1264 1262 1258 1253 1250 1249 1248 1245 1242 1239 1237 1235 1233 1232 1231 1229 1228 1226 1224 1223 1222 1221 1219 1218 1217 1216 1215 1214 1213 1212 1211 1210 1209 1209 1208 1207 1207 1206 1206 1205 1204 1204 1204 1203 1203 1202 1202
1354 1352 1350 1349 1346 1345 1342 1340 1338 1336 1334 1332 1330 1327 1325 1323 1320 1317 1315 1313 1311 1308 1305 1302 1299 1296 1293 1291 1288 1286 1284 1284 1283 1281 1278 1273 1268 1264 1261 1261 1260 1257 1252 1248 1247 1246 1243 1239 1236 1234 1232 1230 1228 1227 1225 1224 1222 1221 1220 1219 1217 1216 1215 1214 1213 1212 1211 1209 1209 1207 1206 1205 1204 1204 1203 1202 1202 1201 1200 1200 1199 1199 1199 1198 1198 1197
1352 1350 1348 1346 1343 1341 1339 1337 1335 1333 1331 1330 1328 1326 1324 1321 1318 1315 1313 1311 1309 1307 1305 1301 1297 1294 1291 1289 1286 1284 1282 1281 1280 1279 1276 1273 1268 1263 1260 1259 1259 1256 1251 1247 1245 1243 1241 1238 1234 1231 1229 1226 1224 1223 1222 1220 1219 1218 1217 1216 1215 1214 1213 1211 1210 1209 1207 1206 1204 1204 1202 1201 1200 1199 1199 1198 1197 1196 1196 1195 1195 1194 1194 1194 1193 1191
1349 1347 1345 1343 1340 1338 1336 1334 1332 1330 1328 1327 1325 1324 1323 1320 1318 1315 1311 1309 1308 1306 1303 1300 1297 1293 1289 1287 1284 1282 1280 1279 1278 1277 1275 1272 1267 1263 1260 1259 1257 1254 1251 1246 1242 1240 1239 1236 1233 1229 1227 1224 1222 1221 1219 1218 1217 1216 1215 1214 1212 1210 1209 1208 1206 1204 1203 1202 1200 1199 1198 1197 1196 1195 1194 1193 1193 1192 1192 1191 1191 1190 1189 1189 1187 1186
1345 1344 1342 1340 1337 1335 1333 1331 1329 1327 1325 1324 1323 1322 1320 1319 1316 1314 1310 1308 1306 1304 1301 1299 1296 1292 1289 1285 1282 1279 1278 1277 1276 1275 1274 1270 1266 1262 1260 1258 1256 1254 1250 1245 1239 1236 1234 1233 1232 1229 1226 1224 1222 1220 1218 1216 1214 1212 1211 1209 1207 1206 1205 1203 1202 1200 1199 1198 1196 1195 1194 1193 1192 1191 1190 1189 1189 1188 1187 1187 1187 1186 1185 1184 1183 1181
1341 1340 1338 1335 1334 1332 1330 1328 1326 1324 1323 1321 1320 1319 1318 1316 1314 1312 1309 1307 1305 1303 1300 1297 1294 1291 1288 1285 1281 1277 1275 1274 1274 1274 1272 1269 1264 1261 1259 1257 1255 1252 1250 1245 1239 1233 1229 1228 1228 1228 1226 1223 1220 1218 1215 1213 1211 1208 1206 1204 1203 1201 1200 1199 1198 1197 1195 1194 1193 1191 1190 1189 1188 1187 1186 1185 1184 1183 1183 1182 1182 1181 1180 1179 1178 1176
1338 1336 1334 1332 1330 1329 1327 1325 1323 1321 1320 1319 1318 1317 1315 1314 1312 1310 1307 1305 1304 1301 1299 1296 1293 1290 1288 1285 1282 1278 1273 1270 1270 1271 1270 1267 1263 1259 1257 1255 1253 1251 1249 1247 1243 1235 1228 1223 1222 1223 1224 1222 1219 1215 1213 1210 1208 1206 1204 1201 1199 1197 1196 1196 1195 1193 1192 1190 1189 1188 1186 1185 1184 1182 1181 1180 1179 1178 1177 1177 1177 1176 1175 1174 1172 1171
1335 1333 1331 1329 1327 1326 1324 1323 1321 1320 1318 1317 1315 1314 1313 1311 1310 1308 1306 1304 1302 1300 1297 1294 1291 1289 1287 1285 1283 1278 1273 1269 1268 1269 1269 1266 1262 1258 1257 1255 1252 1249 1248 1247 1245 1240 1233 1224 1219 1218 1219 1218 1216 1213 1210 1208 1206 1204 1202 1199 1197 1195 1194 1193 1192 1190 1188 1186 1185 1184 1182 1180 1179 1178 1176 1175 1174 1173 1172 1172 1171 1171 1170 1169 1166 1164
1334 1331 1329 1327 1325 1324 1322 1321 1320 1318 1316 1315 1314 1312 1311 1309 1307 1306 1304 1302 1300 1298 1296 1293 1290 1287 1285 1282 1280 1276 1272 1269 1268 1267 1267 1265 1261 1257 1255 1253 1250 1247 1245 1244 1242 1240 1235 1228 1222 1217 1215 1214 1213 1211 1209 1206 1204 1202 1200 1198 1195 1192 1191 1190 1189 1187 1184 1182 1181 1179 1177 1176 1174 1173 1172 1170 1169 1168 1167 1167 1166 1166 1165 1164 1162 1159
1331 1329 1327 1325 1324 1322 1320 1319 1318 1316 1315 1313 1312 1310 1309 1307 1305 1303 1302 1300 1298 1296 1295 1292 1289 1286 1283 1280 1277 1274 1270 1268 1267 1266 1265 1264 1260 1257 1254 1251 1249 1246 1243 1241 1239 1236 1233 1229 1224 1220 1215 1211 1209 1209 1207 1204 1202 1200 1198 1196 1194 1191 1189 1187 1185 1183 1181 1179 1177 1175 1173 1172 1170 1169 1167 1166 1165 1164 1163 1162 1161 1161 1160 1159 1158 1156
1330 1327 1326 1324 1323 1321 1319 1317 1316 1315 1313 1312 1310 1308 1307 1305 1303 1301 1300 1298 1296 1294 1292 1290 1288 1285 1283 1279 1276 1272 1268 1265 1265 1264 1264 1262 1259 1256 1253 1250 1248 1245 1243 1239 1237 1234 1231 1227 1224 1221 1217 1211 1207 1204 1204 1203 1201 1199 1196 1194 1192 1189 1187 1184 1182 1180 1178 1175 1174 1171 1169 1168 1166 1164 1163 1162 1161 1159 1158 1157 1156 1155 1155 1154 1153 1152
1328 1326 1325 1323 1321 1320 1318 1316 1314 1313 1311 1310 1308 1307 1305 1303 1301 1299 1297 1296 1294 1292 1290 1288 1286 1284 1281 1279 1275 1271 1267 1264 1263 1262 1261 1260 1258 1255 1252 1249 1246 1244 1242 1239 1236 1233 1230 1226 1222 1220 1217 1213 1207 1203 1200 1199 1199 1197 1194 1192 1189 1187 1184 1182 1180 1178 1175 1173 1170 1168 1166 1165 1163 1161 1159 1158 1157 1155 1154 1153 1152 1150 1150 1149 1149 1148
1327 1325 1324 1322 1320 1319 1316 1315 1313 1311 1310 1308 1306 1305 1303 1301 1299 1297 1295 1293 1291 1289 1287 1285 1283 1281 1279 1277 1274 1271 1267 1264 1261 1260 1259 1258 1256 1254 1251 1247 1245 1244 1242 1239 1235 1232 1229 1225 1221 1218 1215 1213 1209 1204 1199 1197 1195 1194 1192 1190 1188 1185 1182 1180 1178 1176 1173 1170 1168 1166 1164 1162 1160 1158 1156 1154 1153 1152 1150 1149 1147 1146 1145 1144 1143 1142
1326 1324 1322 1321 1319 1317 1315 1313 1311 1310 1308 1306 1305 1303 1301 1299 1297 1295 1293 1291 1289 1287 1285 1282 1280 1278 1276 1274 1271 1269 1266 1263 1260 1258 1257 1255 1254 1252 1249 1246 1244 1242 1241 1238 1235 1232 1229 1225 1221 1217 1213 1210 1207 1204 1200 1197 1194 1191 1189 1187 1185 1183 1180 1178 1176 1174 1171 1168 1166 1164 1162 1160 1158 1155 1153 1152 1150 1148 1146 1144 1142 1141 1140 1139 1138 1137
1325 1323 1321 1320 1318 1316 1314 1312 1310 1309 1307 1305 1303 1301 1300 1297 1295 1294 1291 1289 1287 1285 1283 1280 1278 1275 1273 1270 1268 1266 1264 1261 1259 1257 1255 1254 1252 1250 1248 1245 1242 1240 1238 1237 1234 1232 1229 1226 1222 1218 1214 1209 1205 1202 1199 1197 1194 1190 1187 1184 1182 1180 1179 1177 1174 1172 1169 1167 1164 1162 1159 1158 1156 1153 1151 1149 1147 1144 1142 1140 1138 1137 1136 1134 1133 1131
1325 1322 1320 1319 1317 1315 1313 1311 1310 1307 1305 1304 1302 1300 1298 1296 1293 1291 1289 1287 1285 1283 1280 1278 1275 1273 1270 1268 1266 1264 1261 1259 1257 1255 1254 1252 1250 1248 1246 1244 1241 1238 1236 1234 1232 1230 1228 1225 1221 1218 1214 1211 1206 1202 1199 1195 1193 1190 1188 1184 1180 1178 1176 1175 1173 1170 1168 1165 1163 1160 1157 1155 1153 1151 1149 1146 1144 1142 1139 1137 1135 1133 1132 1131 1129 1127
1324 1321 1319 1317 1315 1314 1312 1310 1308 1306 1304 1302 1300 1298 1296 1294 1291 1289 1286 1284 1282 1280 1278 1275 1273 1270 1267 1265 1263 1261 1259 1257 1255 1254 1252 1250 1248 1247 1245 1243 1240 1237 1235 1232 1230 1228 1226 1224 1220 1217 1213 1210 1206 1203 1199 1195 1193 1191 1188 1185 1181 1177 1174 1172 1171 1169 1166 1164 1161 1159 1156 1153 1151 1149 1146 1144 1142 1139 1137 1135 1133 1130 1129 1127 1125 1124
1323 1320 1318 1316 1314 1312 1310 1308 1307 1305 1303 1301 1299 1297 1295 1293 1291 1288 1285 1282 1280 1278 1276 1274 1270 1267 1264 1262 1260 1259 1258 1256 1254 1252 1250 1249 1247 1245 1243 1241 1239 1236 1234 1231 1228 1226 1224 1222 1219 1215 1212 1209 1206 1202 1198 1195 1192 1190 1188 1185 1181 1176 1172 1170 1169 1167 1165 1162 1159 1157 1154 1152 1149 1146 1144 1141 1139 1137 1135 1133 1130 1128 1126 1124 1122 1120
1321 1319 1317 1315 1313 1311 1309 1307 1305 1303 1301 1300 1298 1296 1294 1292 1290 1288 1285 1282 1279 1276 1274 1272 1269 1266 1263 1259 1257 1256 1255 1254 1253 1251 1249 1247 1245 1243 1241 1239 1237 1235 1233 1230 1227 1224 1221 1219 1217 1214 1211 1208 1205 1202 1198 1194 1192 1189 1187 1185 1182 1177 1173 1169 1166 1165 1163 1161 1158 1155 1153 1150 1147 1144 1142 1139 1137 1134 1132 1130 1128 1126 1124 1121 1119 1117
1320 1318 1316 1314 1312 1310 1308 1306 1304 1302 1300 1298 1296 1295 1293 1291 1289 1287 1284 1281 1278 1275 1273 1270 1268 1265 1262 1259 1256 1254 1252 1251 1250 1249 1247 1246 1244 1242 1240 1238 1236 1234 1232 1229 1226 1222 1219 1217 1214 1212 1210 1208 1205 1202 1199 1195 1192 1189 1187 1184 1182 1179 1176 1170 1166 1163 1161 1159 1156 1154 1151 1149 1146 1143 1140 1137 1134 1132 1129 1127 1125 1123 1121 1119 1117 1115
1319 1317 1315 1313 1311 1309 1307 1305 1303 1301 1299 1297 1295 1293 1292 1290 1288 1286 1283 1280 1277 1274 1273 1270 1268 1265 1262 1259 1256 1253 1250 1249 1247 1246 1245 1244 1243 1241 1239 1237 1234 1232 1230 1228 1225 1222 1219 1216 1213 1211 1209 1207 1205 1202 1199 1195 1192 1189 1186 1184 1182 1179 1175 1171 1168 1164 1160 1157 1155 1152 1150 1147 1144 1141 1138 1134 1132 1129 1127 1125 1123 1120 1118 1116 1114 1112
1318 1316 1314 1312 1310 1308 1306 1304 1302 1300 1298 1296 1294 1292 1290 1289 1286 1285 1282 1280 1277 1274 1272 1270 1268 1265 1262 1259 1256 1253 1250 1247 1245 1244 1243 1242 1240 1239 1237 1235 1233 1231 1229 1226 1224 1222 1219 1216 1213 1210 1208 1206 1204 1201 1199 1196 1193 1189 1186 1183 1181 1177 1174 1170 1167 1164 1161 1158 1154 1152 1149 1146 1144 1140 1136 1133 1130 1127 1125 1123 1120 1118 1116 1113 1111 1109
1317 1315 1313 1311 1309 1307 1305 1303 1301 1299 1297 1295 1293 1291 1289 1287 1285 1283 1281 1279 1276 1274 1271 1269 1267 1265 1262 1259 1256 1254 1251 1248 1245 1243 1241 1240 1238 1236 1235 1233 1231 1230 1228 1225 1223 1220 1218 1216 1214 1211 1209 1206 1203 1200 1198 1196 1193 1190 1187 1184 1180 1177 1174 1170 1167 1164 1161 1158 1155 1152 1149 1145 1142 1138 1135 1131 1128 1125 1123 1120 1118 1116 1114 1111 1109 1107
1317 1315 1312 1310 1308 1306 1304 1302 1300 1298 1296 1293 1291 1290 1288 1287 1285 1282 1280 1278 1275 1273 1271 1268 1266 1263 1261 1259 1257 1254 1252 1249 1246 1244 1241 1239 1237 1235 1233 1231 1229 1228 1226 1224 1222 1220 1217 1215 1214 1211 1209 1206 1203 1200 1197 1195 1193 1190 1187 1184 1181 1178 1174 1171 1167 1164 1161 1158 1155 1152 1149 1145 1142 1138 1134 1130 1126 1123 1120 1118 1116 1114 1112 1110 1107 1105
1316 1314 1312 1310 1308 1305 1303 1301 1300 1297 1295 1293 1290 1288 1287 1285 1284 1282 1279 1277 1275 1273 1270 1268 1265 1263 1260 1258 1256 1254 1252 1250 1247 1244 1242 1239 1237 1235 1233 1230 1228 1226 1224 1222 1220 1219 1217 1215 1213 1212 1209 1207 1204 1200 1197 1195 1193 1190 1188 1185 1182 1179 1175 1172 1168 1164 1162 1158 1155 1152 1149 1146 1143 1139 1134 1130 1126 1123 1119 1117 1114 1112 1110 1108 1106 1104
1315 1313 1312 1310 1307 1305 1303 1301 1299 1297 1295 1292 1290 1287 1285 1284 1282 1280 1279 1276 1274 1272 1270 1268 1265 1263 1260 1258 1255 1254 1252 1249 1247 1244 1242 1240 1238 1235 1233 1230 1228 1225 1222 1220 1218 1216 1214 1213 1212 1211 1209 1207 1204 1201 1198 1195 1193 1191 1189 1186 1183 1180 1177 1173 1169 1165 1162 1159 1155 1152 1149 1145 1142 1138 1134 1130 1126 1122 1119 1116 1113 1111 1109 1107 1104 1103
1314 1312 1311 1309 1307 1305 1303 1300 1299 1296 1294 1292 1290 1287 1285 1282 1280 1279 1277 1275 1273 1271 1269 1267 1265 1263 1260 1258 1255 1254 1252 1249 1247 1244 1242 1240 1238 1236 1234 1231 1229 1226 1223 1220 1217 1215 1213 1211 1209 1209 1208 1208 1206 1204 1201 1198 1194 1191 1189 1186 1184 1181 1178 1174 1170 1167 1163 1159 1156 1152 1149 1145 1142 1138 1134 1131 1127 1123 1119 1115 1113 1110 1107 1105 1103 1101